Total_Precipitation_Accumulation
0.94 0.96 0.97 0.94 0.89 0.86 0.83 0.79 0.73 0.65 0.57 0.49 0.43 0.39 0.38 0.36 0.37 0.42 0.46 0.49 0.51 0.54 0.57 0.61 0.66 0.70 0.79 0.85 0.84 0.87 0.94 0.98 1.01 0.94 0.81 0.71 0.65 0.61 0.60 0.56 0.52 0.49 0.45
0.73 0.72 0.74 0.68 0.62 0.61 0.60 0.53 0.48 0.46 0.42 0.36 0.33 0.31 0.31 0.32 0.31 0.32 0.35 0.39 0.44 0.46 0.46 0.49 0.52 0.54 0.61 0.64 0.66 0.69 0.76 0.84 0.87 0.90 0.84 0.73 0.67 0.62 0.58 0.59 0.46 0.39 0.38
0.58 0.58 0.60 0.58 0.54 0.52 0.49 0.43 0.39 0.38 0.39 0.34 0.30 0.30 0.29 0.27 0.27 0.27 0.28 0.32 0.38 0.42 0.41 0.43 0.45 0.45 0.47 0.46 0.51 0.57 0.65 0.73 0.84 0.86 0.81 0.72 0.63 0.56 0.56 0.50 0.44 0.49 0.37
0.52 0.53 0.53 0.50 0.48 0.46 0.43 0.40 0.39 0.34 0.30 0.28 0.26 0.26 0.25 0.23 0.23 0.24 0.25 0.29 0.32 0.35 0.33 0.33 0.33 0.34 0.38 0.42 0.44 0.52 0.60 0.74 0.81 0.81 0.72 0.64 0.59 0.53 0.58 0.56 0.51 0.50 0.41
0.51 0.54 0.53 0.47 0.41 0.38 0.35 0.34 0.33 0.32 0.27 0.23 0.20 0.20 0.17 0.16 0.16 0.17 0.22 0.26 0.32 0.31 0.29 0.27 0.24 0.23 0.26 0.31 0.35 0.44 0.56 0.70 0.74 0.74 0.68 0.62 0.58 0.58 0.56 0.52 0.54 0.50 0.41
0.58 0.61 0.58 0.53 0.44 0.39 0.32 0.29 0.28 0.25 0.22 0.19 0.18 0.19 0.18 0.14 0.16 0.16 0.18 0.24 0.31 0.32 0.29 0.27 0.22 0.19 0.20 0.25 0.30 0.37 0.48 0.58 0.66 0.71 0.67 0.65 0.61 0.59 0.61 0.58 0.61 0.58 0.55
0.56 0.54 0.53 0.48 0.43 0.36 0.30 0.27 0.29 0.30 0.26 0.25 0.25 0.25 0.27 0.21 0.14 0.13 0.15 0.20 0.26 0.27 0.28 0.28 0.24 0.20 0.25 0.29 0.29 0.28 0.32 0.33 0.45 0.63 0.72 0.69 0.69 0.71 0.78 0.75 0.72 0.70 0.66
0.47 0.45 0.40 0.36 0.35 0.33 0.29 0.29 0.31 0.33 0.32 0.31 0.31 0.31 0.33 0.24 0.15 0.11 0.13 0.20 0.25 0.22 0.23 0.26 0.32 0.32 0.26 0.26 0.26 0.30 0.36 0.38 0.41 0.49 0.66 0.69 0.64 0.67 0.75 0.78 0.78 0.75 0.69
0.44 0.43 0.36 0.30 0.31 0.32 0.32 0.32 0.35 0.35 0.35 0.34 0.37 0.40 0.39 0.28 0.16 0.13 0.16 0.24 0.27 0.24 0.20 0.19 0.21 0.24 0.21 0.23 0.30 0.42 0.46 0.50 0.39 0.46 0.56 0.62 0.63 0.66 0.67 0.71 0.83 0.89 0.85
0.41 0.37 0.31 0.29 0.30 0.32 0.34 0.36 0.34 0.34 0.33 0.30 0.35 0.43 0.39 0.29 0.17 0.14 0.19 0.25 0.30 0.30 0.31 0.29 0.21 0.18 0.20 0.22 0.29 0.41 0.50 0.51 0.55 0.73 0.85 0.85 0.79 0.76 0.70 0.77 0.90 0.92 0.91
0.33 0.34 0.32 0.30 0.29 0.29 0.32 0.35 0.35 0.32 0.34 0.33 0.34 0.36 0.34 0.23 0.17 0.14 0.18 0.24 0.26 0.29 0.34 0.35 0.29 0.20 0.19 0.20 0.24 0.34 0.44 0.44 0.62 0.96 1.01 0.90 0.80 0.77 0.71 0.69 0.76 0.83 0.91
0.38 0.41 0.39 0.33 0.23 0.23 0.32 0.36 0.33 0.32 0.35 0.36 0.36 0.36 0.30 0.22 0.15 0.11 0.13 0.17 0.19 0.26 0.37 0.33 0.28 0.24 0.21 0.22 0.26 0.36 0.44 0.57 0.79 1.04 1.01 0.86 0.71 0.65 0.61 0.55 0.61 0.68 0.77
0.43 0.44 0.38 0.28 0.24 0.24 0.29 0.30 0.28 0.29 0.27 0.25 0.25 0.28 0.24 0.20 0.15 0.08 0.08 0.11 0.14 0.22 0.31 0.30 0.28 0.26 0.29 0.40 0.43 0.49 0.61 0.78 0.91 0.97 0.91 0.76 0.62 0.57 0.52 0.51 0.50 0.57 0.62
0.51 0.43 0.34 0.29 0.24 0.21 0.20 0.17 0.18 0.19 0.19 0.19 0.19 0.20 0.19 0.17 0.11 0.07 0.09 0.12 0.15 0.20 0.27 0.37 0.44 0.47 0.53 0.64 0.72 0.78 0.80 0.82 0.79 0.78 0.72 0.62 0.55 0.52 0.50 0.45 0.45 0.48 0.58
0.48 0.38 0.33 0.27 0.21 0.19 0.15 0.11 0.11 0.10 0.08 0.11 0.11 0.11 0.13 0.12 0.06 0.07 0.09 0.11 0.15 0.20 0.24 0.38 0.56 0.66 0.72 0.76 0.79 0.81 0.77 0.69 0.66 0.61 0.57 0.53 0.52 0.52 0.48 0.41 0.41 0.43 0.52
0.33 0.28 0.23 0.18 0.16 0.13 0.13 0.11 0.05 0.03 0.03 0.04 0.04 0.05 0.05 0.06 0.06 0.06 0.08 0.10 0.13 0.18 0.24 0.42 0.56 0.63 0.69 0.72 0.73 0.69 0.62 0.58 0.52 0.49 0.48 0.43 0.40 0.41 0.43 0.39 0.37 0.41 0.48
0.21 0.18 0.14 0.11 0.10 0.09 0.11 0.17 0.19 0.11 0.03 0.02 0.02 0.03 0.04 0.05 0.05 0.05 0.06 0.08 0.11 0.18 0.28 0.45 0.54 0.58 0.63 0.66 0.62 0.57 0.53 0.49 0.42 0.37 0.37 0.35 0.30 0.31 0.35 0.37 0.36 0.38 0.38
0.13 0.09 0.09 0.10 0.07 0.06 0.07 0.10 0.15 0.22 0.20 0.13 0.06 0.03 0.04 0.05 0.06 0.05 0.06 0.09 0.16 0.23 0.36 0.46 0.52 0.54 0.57 0.57 0.53 0.49 0.46 0.40 0.34 0.30 0.29 0.30 0.29 0.27 0.29 0.32 0.31 0.29 0.31
0.11 0.09 0.07 0.06 0.04 0.04 0.04 0.05 0.06 0.11 0.17 0.19 0.15 0.08 0.06 0.09 0.10 0.11 0.13 0.16 0.21 0.26 0.32 0.37 0.43 0.46 0.48 0.47 0.44 0.39 0.37 0.34 0.30 0.27 0.26 0.27 0.27 0.26 0.24 0.23 0.22 0.17 0.22
0.09 0.05 0.04 0.04 0.04 0.03 0.03 0.04 0.05 0.08 0.11 0.14 0.13 0.09 0.10 0.17 0.21 0.20 0.17 0.16 0.17 0.20 0.24 0.30 0.34 0.35 0.36 0.35 0.32 0.30 0.28 0.28 0.26 0.24 0.25 0.26 0.25 0.22 0.19 0.18 0.18 0.19 0.20
0.05 0.03 0.02 0.02 0.03 0.03 0.03 0.03 0.04 0.06 0.09 0.10 0.08 0.06 0.12 0.18 0.23 0.23 0.21 0.19 0.19 0.20 0.22 0.24 0.25 0.26 0.24 0.23 0.24 0.24 0.22 0.22 0.23 0.25 0.25 0.24 0.21 0.17 0.13 0.12 0.11 0.10 0.11
0.04 0.03 0.02 0.02 0.02 0.02 0.02 0.02 0.02 0.03 0.06 0.08 0.08 0.07 0.12 0.16 0.20 0.21 0.22 0.21 0.20 0.21 0.21 0.22 0.21 0.21 0.20 0.20 0.22 0.22 0.19 0.18 0.19 0.23 0.24 0.21 0.18 0.13 0.09 0.08 0.07 0.06 0.06
0.02 0.02 0.02 0.02 0.02 0.02 0.02 0.02 0.03 0.03 0.05 0.06 0.06 0.08 0.10 0.14 0.16 0.19 0.22 0.20 0.17 0.16 0.15 0.17 0.19 0.19 0.18 0.17 0.18 0.16 0.15 0.15 0.16 0.19 0.25 0.22 0.16 0.11 0.09 0.09 0.07 0.06 0.05
0.01 0.01 0.01 0.02 0.02 0.03 0.03 0.03 0.03 0.03 0.03 0.04 0.05 0.07 0.09 0.11 0.12 0.16 0.20 0.20 0.19 0.18 0.16 0.16 0.18 0.18 0.18 0.18 0.18 0.14 0.11 0.11 0.11 0.14 0.19 0.18 0.13 0.10 0.10 0.10 0.09 0.07 0.06
0.01 0.01 0.01 0.02 0.03 0.03 0.03 0.03 0.02 0.03 0.03 0.03 0.04 0.06 0.07 0.07 0.07 0.09 0.14 0.17 0.18 0.19 0.18 0.15 0.14 0.13 0.12 0.10 0.09 0.08 0.11 0.11 0.09 0.10 0.15 0.16 0.11 0.09 0.09 0.08 0.08 0.07 0.07
0.02 0.02 0.02 0.03 0.03 0.03 0.03 0.03 0.03 0.03 0.03 0.03 0.03 0.03 0.04 0.04 0.04 0.05 0.07 0.10 0.13 0.15 0.16 0.15 0.13 0.10 0.07 0.05 0.06 0.07 0.09 0.08 0.06 0.06 0.10 0.14 0.11 0.09 0.09 0.08 0.06 0.07 0.08